Regional Weather Roundup
Issued by NWS Jackson, KY

Home | Current Version | Previous Version | Graphics & Text | Print | Product List | Glossary On
Versions: 1 2 3 4 5 6 7 8 9 10 11 12 13 14 15 16 17 18 19 20 21 22 23 24 25 26 27 28 29 30 31 32 33 34 35 36 37 38 39 40 41 42 43 44 45 46 47 48 49 50
000
ASUS43 KJKL 112305
RWRJKL

EAST KENTUCKY HOURLY WEATHER ROUNDUP
NATIONAL WEATHER SERVICE JACKSON KY
700 PM EDT FRI JUL 11 2014

NOTE: "FAIR" INDICATES FEW OR NO CLOUDS BELOW 12,000 FEET WITH
NO SIGNIFICANT WEATHER AND/OR OBSTRUCTIONS TO VISIBILITY.

* THESE REPORTS ARE NOT UNDER NWS QUALITY CONTROL AND MAY NOT
  REPORT WEATHER SUCH AS PRECIPITATION AND FOG.

KYZ079-080-083-085-087-088-110-112-115-119-120-120000
...EASTERN KENTUCKY...

CITY           SKY/WX    TMP DP  RH WIND       PRES   REMARKS
JACKSON        SUNNY     86  54  33 NW3       30.16F
LONDON         SUNNY     88  55  32 CALM      30.16F
SOMERSET*      SUNNY     88  54  31 N6        30.14F
MONTICELLO*    SUNNY     89  63  41 CALM      30.15F HX  90
MIDDLESBORO*   SUNNY     86  60  41 CALM      30.15S
HARLAN APT*    CLEAR     82  59  44 MISG      30.17S
BIG SANDY*     CLEAR     83  60  45 CALM      30.17S
MOREHEAD APT*    N/A     86  57  37 CALM      30.17S
$$

KYZ035-036-041-042-044-050-067-078-099-120000
...CENTRAL KENTUCKY...

CITY           SKY/WX    TMP DP  RH WIND       PRES   REMARKS
MT STERLING*   SUNNY     86  61  42 W3        30.16S
FLEMING/MASON* SUNNY     87  57  36 SW3       30.15F
DANVILLE*      SUNNY     88  59  37 SW3       30.15F
RICHMOND*      MOSUNNY   86  52  30 CALM      30.14S
LEXINGTON      SUNNY     87  58  37 W5        30.14F
FRANKFORT      SUNNY     85  60  42 W5        30.13F
$$

KYZ091>093-OHZ055-061-077-WVZ005-015-034-035-042-120000
...SOUTHERN OHIO/WEST VIRGINIA...

CITY           SKY/WX    TMP DP  RH WIND       PRES   REMARKS
COVINGTON      MOSUNNY   84  57  39 W7        30.15S
COLUMBUS       MOSUNNY   84  53  34 CALM      30.15F
DAYTON         MOSUNNY   82  58  43 NW6       30.17S
WILMINGTON     SUNNY     79  59  50 E5        30.16S
HUNTINGTON     SUNNY     82  59  45 CALM      30.13F
CHARLESTON     MOSUNNY   86  62  44 VRB3      30.14F
PINEVILLE*     SUNNY     80  67  66 MISG      30.24S
BECKLEY        SUNNY     79  58  48 N6        30.23F
BLUEFIELD      CLOUDY    84  53  34 CALM      30.26S
$$

VAZ002-007-008-TNZ017-027-036-066-071-120000
...SOUTHWEST VIRGINIA/EAST TENNESSEE...

CITY           SKY/WX    TMP DP  RH WIND       PRES   REMARKS
WISE*          PTSUNNY   81  55  41 N6        30.25S
ABINGDON*      SUNNY     86  54  33 N3        30.20S
BRISTOL        MOSUNNY   88  53  30 CALM      30.16F
KNOXVILLE      MOSUNNY   88  60  38 N6        30.12S
OAK RIDGE      SUNNY     90  59  35 VRB3      30.14F
CROSSVILLE     SUNNY     83  56  39 N5        30.20S
NASHVILLE      MOSUNNY   92  60  34 VRB6      30.11F HX  91
$$

...KEY TO REMARKS...
VSB - VISIBILITY IN MILES
WCI - WIND CHILL INDEX
HX  - HEAT INDEX

$$



USA.gov is the U.S. government's official web portal to all federal, state and local government web resources and services.